Regional Weather Roundup
Issued by NWS

Home | Current Version | Previous Version | Text Only | Print | Product List | Glossary Off
Versions: 1 2 3 4 5 6 7 8 9 10 11 12 13 14 15 16 17 18 19 20 21 22 23 24 25 26 27 28 29 30 31 32 33 34 35 36 37 38 39 40 41 42 43 44 45 46 47 48 49 50

000
ASUS43 KLMK 300802
RWRKY
KENTUCKY REGIONAL WEATHER ROUNDUP
NATIONAL WEATHER SERVICE LOUISVILLE KY
400 AM EDT THU OCT 30 2014

NOTE "FAIR" INDICATES FEW OR NO CLOUDS BELOW 12,000 FEET
WITH NO SIGNIFICANT WEATHER AND/OR OBSTRUCTIONS TO VISIBILITY.

KYZ001>023-026-027-061>063-070>075-300900-
WESTERN AND SOUTH CENTRAL KENTUCKY

CITY           SKY/WX    TMP DP  RH WIND       PRES   REMARKS
PADUCAH        CLEAR     36  35  96 CALM      30.15S
HENDERSON      CLEAR     37  34  87 CALM      30.16S
OWENSBORO      CLEAR     38  37  96 CALM      30.16F
HOPKINSVILLE   CLEAR     39  38  99 N5        30.14F
BOWLING GREEN  CLEAR     40  36  86 CALM      30.15S
GLASGOW        NOT AVBL
$$

KYZ024-025-028>034-038-045-046-053-300900-
NORTH CENTRAL KENTUCKY

CITY           SKY/WX    TMP DP  RH WIND       PRES   REMARKS
LOUISVILLE/SDF CLEAR     44  36  73 VRB5      30.15S
LOUISVILLE/LOU CLEAR     40  36  86 CALM      30.16S
FORT KNOX      CLEAR     37  35  90 CALM      30.14S
$$

KYZ035>037-039>044-047>052-055>060-089>105-300900-
NORTHEAST KENTUCKY

CITY           SKY/WX    TMP DP  RH WIND       PRES   REMARKS
LEXINGTON      CLEAR     41  35  79 CALM      30.14S
COVINGTON      CLOUDY    45  34  65 N3        30.13S
FRANKFORT      CLEAR     36  33  89 CALM      30.13F
$$

KYZ054-064>069-076>088-106>120-300900-
SOUTHEAST KENTUCKY

CITY           SKY/WX    TMP DP  RH WIND       PRES   REMARKS
JACKSON        CLEAR     41  34  76 CALM      30.11F
LONDON         CLEAR     40  36  86 CALM      30.12S
SOMERSET       CLEAR     37  37 100 CALM      30.14S
MIDDLESBORO    CLOUDY    37  37  99 CALM      30.12S
MONTICELLO     SUNNY     35  35 100 CALM      30.14F FOG
$$




USA.gov is the U.S. government's official web portal to all federal, state and local government web resources and services.